COSMOS 1275 DEB, 42103

Orbit data source: Space-Track

COSMOS 1275 DEB, 42103 is space debris in LEO originally from a launch on Thu, 04 Jun 1981 UTC launched from the Plesetsk Missile And Space Complex (PKMTR). Debris objects in space refer to the collection of defunct objects orbiting the Earth. Examples of debris include non-operational satellites, rocket bodies, and fragments generated from explosions, collisions, or faulty payload assembly.

Loading next visibility...
COSMOS 1275 DEB details
Identifier
42103, 1981-053PP
Orbit
LEO
Last TLE update1 week ago
Origin
Flag of CISGUKOS (CIS)
ManufacturerUnknown
MissionSpacecraft
Bus & MotorUnknown
MassUnknown
Launch date (UTC)
1981-06-04 (44 years ago)
Launch vehicleUnknown
Launch site
Plesetsk Missile And Space Complex (PKMTR)
Object type
Payload
Rocket body
Debris
Shape & HBRUnknown
Radar Cross SectionSmall (<0.1 m²)

Expand to show TLE details & history

TLE from 1 week ago
0 COSMOS 1275 DEB
1 42103U 81053PP  24355.28293123  .00005533  00000-0  29720-2 0  9994
2 42103  83.1759 359.3735 0025376 244.4413 115.4142 14.12610930568009
Epoch: 2024-12-20T06:47Z
Definitive object data (Epoch: 2024-12-20T06:47:25.258Z)
Latitude0.00007°
Longitude168.1676°
Altitude861.321 km
Speed7.418 km/s
True Right ascension23h 57m 29s
True Declination0° 00' 00"
Sunlit
Object was in daylight at TLE epoch
Visualization TLE readout
Latitude48.40256°
Longitude170.78725°
Altitude876.096 km
Speed7.409 km/s
Apparent Right ascension05h 16m 52s
Apparent Declination28° 41' 31"
Sunlit
Object is in daylight
Visualization observer readout
Local Sidereal Time22:12:08
Azimuth58.064° ENE
Elevation6.923°
Doppler factor1
Orbital elements
Apogee altitude865.875 km
Perigee altitude829.203 km
Semi-major axis7,225.676 km
Eccentricity0.0025376
Inclination83.1759°
RAAN359.3735°
Arg. of periapsis244.4413°
True anomaly115.67649°
Mean anomaly115.4142°
Eccentric anomaly115.54538°
Mean motion3.53367 °/min
BSTAR0.002972
Orbital period101.88 mins
Loading maneuver chart data...
Loading historical data...
Loading historical data...
Loading historical data...
Loading historical data...
Loading historical data...
Loading historical data...
Loading historical data...

COSMOS 1275 DEB Visibility forecast

Observer location: undefined°, undefined

Span
Click to sort rows by Start time (UTC) header in descending order
Start Az.
Max El. time (UTC)
Max El. Az.
Max El.
End time (UTC)
End Az.
11 mins2024-12-27 00:22:55.347Z179.451° S2024-12-27 00:28:55.347Z47.244° ENE43.561°2024-12-27 00:33:55.347Z9.841° NNE
8 mins2024-12-27 11:04:55.347Z17.958° NNE2024-12-27 11:07:55.347Z65.077° ENE32.653°2024-12-27 11:12:55.347Z144.257° SSE
7 mins2024-12-27 12:47:55.347Z313.914° NW2024-12-27 12:50:55.347Z271.759° WNW22.2°2024-12-27 12:54:55.347Z223.88° SW
|